Weather History for PAGY - July, 2012

Change the Weather History Date:

Tuesday, July 17, 2012

  Actual Average Record
Temperature  
Mean Temperature 55 °F -  
Max Temperature 62 °F 62 °F 80 °F (1983)
Min Temperature 50 °F 50 °F 41 °F (1988)
Degree Days  
Heating Degree Days 10    
Growing Degree Days 5 (Base 50)    
Moisture  
Dew Point 47 °F    
Average Humidity 75    
Maximum Humidity 89    
Minimum Humidity 63    
Precipitation  
Precipitation 0.00 in - - ()
Sea Level Pressure  
Sea Level Pressure 30.00 in    
Wind  
Wind Speed 6 mph (SW)    
Max Wind Speed 25 mph    
Max Gust Speed 32 mph    
Visibility 10 miles    
Events      
Averages and records for this station are not official NWS values.
T = Trace of Precipitation, MM = Missing Value Source: NWS Daily Summary

Daily Weather History Graph

Daily Weather History Graph

Search for Another Location

Airport or City:

Trip Planner

Search our weather history database for the weather conditions in past years. The results will help you decide how hot, cold, wet, or windy it might be!

Date:

Astronomy

Jul. 17, 2012 Rise Set
Actual Time 4:14 AM AKDT 9:58 PM AKDT
Civil Twilight 3:03 AM AKDT 11:08 PM AKDT
Nautical Twilight 1:39 AM AKDT 12:35 AM AKDT
Astronomical Twilight Sun does not rise Sun does not rise
Moon 3:02 AM AKDT (7/17) 8:41 PM AKDT (7/17)
Length of Visible Light 20h 04m
Length of Day
17h 43m
Waning Crescent, 2% of the Moon is Illuminated
Jul 17
Waning Crescent
Jul 18
New
Jul 26
First Quarter
Aug 1
Full
Aug 9
Last Quarter

Hourly Weather History & Observations

Time (AKDT) Temp. Dew Point Humidity Pressure Visibility Wind Dir Wind Speed Gust Speed Precip Events Conditions
12:53 AM 53.1 °F 46.9 °F 80% 30.10 in 10.0 mi Calm Calm - N/A   Overcast
1:53 AM 51.1 °F 46.0 °F 83% 30.09 in 10.0 mi Calm Calm - N/A   Overcast
2:53 AM 51.1 °F 46.0 °F 83% 30.10 in 10.0 mi NNE 3.5 mph - N/A   Overcast
3:53 AM 50.0 °F 46.0 °F 86% 30.10 in 10.0 mi NNE 3.5 mph - N/A   Overcast
4:53 AM 50.0 °F 46.9 °F 89% 30.09 in 10.0 mi Calm Calm - N/A   Overcast
5:53 AM 51.1 °F 46.9 °F 86% 30.07 in 10.0 mi Calm Calm - N/A   Overcast
6:53 AM 52.0 °F 46.9 °F 83% 30.07 in 10.0 mi Calm Calm - N/A   Overcast
7:53 AM 54.0 °F 46.9 °F 77% 30.06 in 10.0 mi NNE 3.5 mph - N/A   Scattered Clouds
8:53 AM 57.0 °F 46.0 °F 67% 30.04 in 10.0 mi Calm Calm - N/A   Overcast
9:53 AM 54.0 °F 46.9 °F 77% 30.03 in 10.0 mi SSW 4.6 mph - N/A   Overcast
10:53 AM 52.0 °F 46.9 °F 83% 30.02 in 10.0 mi SW 4.6 mph - N/A   Overcast
11:53 AM 52.0 °F 46.9 °F 83% 30.00 in 10.0 mi SSW 8.1 mph - N/A   Scattered Clouds
12:53 PM 55.0 °F 46.9 °F 74% 29.98 in 10.0 mi WSW 3.5 mph - N/A   Mostly Cloudy
1:53 PM 57.0 °F 48.0 °F 72% 29.96 in 10.0 mi SSW 17.3 mph - N/A   Mostly Cloudy
2:53 PM 60.1 °F 48.9 °F 67% 29.94 in 10.0 mi SSW 19.6 mph 28.8 mph N/A   Overcast
3:53 PM 57.9 °F 48.9 °F 72% 29.92 in 10.0 mi SSW 23.0 mph 31.1 mph N/A   Clear
4:53 PM 59.0 °F 48.9 °F 69% 29.91 in 10.0 mi SSW 25.3 mph - N/A   Clear
5:53 PM 60.1 °F 48.9 °F 67% 29.90 in 10.0 mi SSW 24.2 mph 32.2 mph N/A   Scattered Clouds
6:53 PM 59.0 °F 48.9 °F 69% 29.90 in 10.0 mi SSW 23.0 mph - N/A   Partly Cloudy
7:53 PM 59.0 °F 48.0 °F 67% 29.92 in 10.0 mi SSW 20.7 mph - N/A   Mostly Cloudy
8:53 PM 59.0 °F 48.0 °F 67% 29.94 in 10.0 mi SSW 20.7 mph - N/A   Overcast
9:53 PM 59.0 °F 46.4 °F 63% 29.96 in 10.0 mi SSW 17.3 mph 23.0 mph N/A   Overcast
10:53 PM 55.9 °F 48.0 °F 75% 29.97 in 10.0 mi WSW 10.4 mph - N/A   Overcast
11:53 PM 55.9 °F 46.9 °F 72% 29.99 in 10.0 mi Calm Calm - N/A   Overcast